Weather History for Chesapeake, VA

Change the Weather History Date:

Monday, October 7, 2013

  Actual Average (KORF) Record (KORF)
Temperature  
Mean Temperature 76 °F 65 °F  
Max Temperature 86 °F 73 °F 90 °F (1941)
Min Temperature 64 °F 57 °F 42 °F (1966)
Degree Days  
Heating Degree Days 0 3  
Month to date heating degree days 15  
Since 1 July heating degree days 26  
Cooling Degree Days 11 3  
Month to date cooling degree days 23  
Year to date cooling degree days 1588  
Growing Degree Days 26 (Base 50)    
Moisture  
Dew Point 69 °F    
Average Humidity 84    
Maximum Humidity 100    
Minimum Humidity 51    
Precipitation  
Precipitation 1.86 in 0.12 in 1.21 in (1891)
Month to date precipitation 0.79  
Year to date precipitation 37.49  
Snow  
Snow 0.00 in 0.00 in 0.00 in (2002)
Month to date snowfall 0.0  
Since 1 July snowfall 0.0  
Snow Depth -    
Sea Level Pressure  
Sea Level Pressure 29.93 in    
Wind  
Wind Speed 5 mph (SSE)    
Max Wind Speed 17 mph    
Max Gust Speed 26 mph    
Visibility 7 miles    
Events Rain , Thunderstorm    
T = Trace of Precipitation, MM = Missing Value Source: NWS Daily Summary

Daily Weather History Graph

Daily Weather History Graph

Search for Another Location

Airport:

Trip Planner

Search our weather history database for the weather conditions in past years. The results will help you decide how hot, cold, wet, or windy it might be!

Date:

Astronomy

Oct. 07, 2013 Rise Set
Actual Time 7:05 AM EDT 6:39 PM EDT
Civil Twilight 6:39 AM EDT 7:05 PM EDT
Nautical Twilight 6:09 AM EDT 7:35 PM EDT
Astronomical Twilight 5:39 AM EDT 8:05 PM EDT
Moon 9:48 AM EDT (10/7) 8:28 PM EDT (10/7)
Length of Visible Light 12h 25m
Length of Day
11h 33m
Waxing Crescent, 8% of the Moon is Illuminated
Oct 7
Waxing Crescent
Oct 11
First Quarter
Oct 18
Full
Oct 26
Last Quarter
Nov 3
New

Hourly Weather History & Observations

Time (EDT) Temp. Heat Index Dew Point Humidity Pressure Visibility Wind Dir Wind Speed Gust Speed Precip Events Conditions
12:15 AM 71.6 °F - 68.0 °F 88% 29.99 in 10.0 mi ESE 4.6 mph - N/A   Scattered Clouds
12:35 AM 71.6 °F - 68.0 °F 88% 29.98 in 10.0 mi SE 4.6 mph - N/A   Clear
12:55 AM 71.6 °F - 68.0 °F 88% 29.97 in 7.0 mi ESE 5.8 mph - N/A   Clear
1:15 AM 71.6 °F - 69.8 °F 94% 29.98 in 7.0 mi SE 4.6 mph - N/A   Clear
1:35 AM 71.6 °F - 69.8 °F 94% 29.98 in 7.0 mi SSE 4.6 mph - N/A   Scattered Clouds
1:55 AM 71.6 °F - 69.8 °F 94% 29.97 in 7.0 mi ESE 4.6 mph - N/A   Scattered Clouds
2:15 AM 71.6 °F - 68.0 °F 88% 29.98 in 10.0 mi Calm Calm - N/A   Scattered Clouds
2:35 AM 71.6 °F - 69.8 °F 94% 29.97 in 7.0 mi Calm Calm - N/A   Mostly Cloudy
2:55 AM 73.4 °F - 69.8 °F 88% 29.96 in 7.0 mi SE 4.6 mph - N/A   Overcast
3:15 AM 73.4 °F - 68.0 °F 83% 29.95 in 7.0 mi Calm Calm - N/A   Overcast
3:35 AM 73.4 °F - 68.0 °F 83% 29.95 in 7.0 mi Calm Calm - N/A   Overcast
3:55 AM 73.4 °F - 68.0 °F 83% 29.94 in 7.0 mi Calm Calm - N/A   Overcast
4:15 AM 73.4 °F - 69.8 °F 88% 29.94 in 7.0 mi Calm Calm - N/A   Overcast
4:35 AM 73.4 °F - 69.8 °F 88% 29.94 in 7.0 mi Calm Calm - N/A   Mostly Cloudy
4:55 AM 73.4 °F - 69.8 °F 88% 29.94 in 7.0 mi Calm Calm - N/A   Mostly Cloudy
5:15 AM 73.4 °F - 69.8 °F 88% 29.93 in 5.0 mi Calm Calm - N/A   Mostly Cloudy
5:35 AM 73.4 °F - 69.8 °F 88% 29.93 in 7.0 mi Calm Calm - N/A   Mostly Cloudy
5:55 AM 73.4 °F - 71.6 °F 94% 29.93 in 7.0 mi Calm Calm - N/A   Mostly Cloudy
6:15 AM 73.4 °F - 71.6 °F 94% 29.93 in 7.0 mi Calm Calm - N/A   Mostly Cloudy
6:35 AM 73.4 °F - 71.6 °F 94% 29.93 in 7.0 mi Calm Calm - N/A   Overcast
6:55 AM 73.4 °F - 71.6 °F 94% 29.93 in 7.0 mi Calm Calm - N/A   Scattered Clouds
7:15 AM 73.4 °F - 71.6 °F 94% 29.93 in 7.0 mi Calm Calm - N/A   Scattered Clouds
7:35 AM 73.4 °F - 71.6 °F 94% 29.93 in 7.0 mi SSE 9.2 mph - N/A Rain Light Rain
7:55 AM 73.4 °F - 71.6 °F 94% 29.92 in 7.0 mi SE 6.9 mph - N/A   Scattered Clouds
8:15 AM 73.4 °F - 71.6 °F 94% 29.93 in 5.0 mi SSE 5.8 mph - N/A   Scattered Clouds
8:35 AM 73.4 °F - 71.6 °F 94% 29.93 in 7.0 mi SSE 9.2 mph - N/A   Scattered Clouds
8:55 AM 75.2 °F - 71.6 °F 89% 29.93 in 5.0 mi SSE 8.1 mph - N/A   Clear
9:15 AM 77.0 °F - 71.6 °F 83% 29.93 in 7.0 mi SSE 8.1 mph - N/A   Clear
9:35 AM 78.8 °F - 71.6 °F 78% 29.93 in 7.0 mi SSE 10.4 mph 18.4 mph N/A   Scattered Clouds
9:55 AM 80.6 °F 84.6 °F 71.6 °F 74% 29.93 in 7.0 mi South 15.0 mph 19.6 mph N/A   Mostly Cloudy
10:15 AM 80.6 °F 84.6 °F 71.6 °F 74% 29.93 in 7.0 mi South 13.8 mph 18.4 mph N/A   Mostly Cloudy
10:35 AM 80.6 °F 84.6 °F 71.6 °F 74% 29.93 in 7.0 mi South 12.7 mph 21.9 mph N/A   Mostly Cloudy
10:55 AM 82.4 °F 87.2 °F 71.6 °F 70% 29.92 in 7.0 mi South 15.0 mph 20.7 mph N/A   Mostly Cloudy
11:15 AM 80.6 °F 83.9 °F 69.8 °F 70% 29.92 in 7.0 mi South 15.0 mph 26.5 mph N/A   Mostly Cloudy
11:35 AM 84.2 °F 88.4 °F 69.8 °F 62% 29.92 in 7.0 mi South 11.5 mph 20.7 mph N/A   Mostly Cloudy
11:55 AM 84.2 °F 88.4 °F 69.8 °F 62% 29.91 in 7.0 mi South 15.0 mph 24.2 mph N/A   Scattered Clouds
12:15 PM 84.2 °F 87.3 °F 68.0 °F 58% 29.90 in 7.0 mi South 9.2 mph 23.0 mph N/A   Scattered Clouds
12:35 PM 84.2 °F 87.3 °F 68.0 °F 58% 29.89 in 7.0 mi South 11.5 mph 23.0 mph N/A   Mostly Cloudy
12:55 PM 84.2 °F 87.3 °F 68.0 °F 58% 29.88 in 7.0 mi South 16.1 mph 23.0 mph N/A   Mostly Cloudy
1:15 PM 84.2 °F 86.6 °F 66.2 °F 55% 29.88 in 7.0 mi South 17.3 mph 23.0 mph N/A   Mostly Cloudy
1:35 PM 86.0 °F 88.2 °F 66.2 °F 51% 29.86 in 7.0 mi South 15.0 mph 24.2 mph N/A   Mostly Cloudy
1:55 PM 86.0 °F 88.2 °F 66.2 °F 51% 29.86 in 10.0 mi South 12.7 mph 19.6 mph N/A   Mostly Cloudy
2:15 PM 86.0 °F 88.2 °F 66.2 °F 51% 29.85 in 7.0 mi South 13.8 mph 21.9 mph N/A   Scattered Clouds
2:35 PM 84.2 °F 86.6 °F 66.2 °F 55% 29.85 in 7.0 mi South 12.7 mph - N/A   Mostly Cloudy
2:55 PM 84.2 °F 86.6 °F 66.2 °F 55% 29.86 in 7.0 mi SSE 13.8 mph 17.3 mph N/A   Mostly Cloudy
3:15 PM 82.4 °F 84.6 °F 66.2 °F 58% 29.86 in 10.0 mi South 10.4 mph 19.6 mph N/A   Scattered Clouds
3:35 PM 82.4 °F 84.6 °F 66.2 °F 58% 29.86 in 7.0 mi South 9.2 mph - N/A   Scattered Clouds
3:55 PM 82.4 °F 84.6 °F 66.2 °F 58% 29.86 in 7.0 mi SSW 6.9 mph - N/A   Scattered Clouds
4:15 PM 82.4 °F 85.4 °F 68.0 °F 62% 29.86 in 7.0 mi SW 4.6 mph - N/A Rain Light Rain
4:35 PM 73.4 °F - 71.6 °F 94% 29.89 in 2.5 mi West 10.4 mph - 0.31 in Rain , Thunderstorm Heavy Thunderstorms and Rain
4:55 PM 71.6 °F - 71.6 °F 100% 29.90 in 1.8 mi WNW 13.8 mph 20.7 mph 0.33 in Rain , Thunderstorm Heavy Thunderstorms and Rain
5:15 PM 71.6 °F - 71.6 °F 100% 29.91 in 10.0 mi West 8.1 mph - 0.43 in Rain , Thunderstorm Light Thunderstorms and Rain
5:35 PM 71.6 °F - 69.8 °F 94% 29.89 in 7.0 mi NW 3.5 mph - 0.43 in   Mostly Cloudy
5:55 PM 71.6 °F - 69.8 °F 94% 29.89 in 10.0 mi SE 3.5 mph - N/A Rain , Thunderstorm Light Thunderstorms and Rain
6:15 PM 71.6 °F - 69.8 °F 94% 29.90 in 7.0 mi Calm Calm - 0.01 in Rain Light Rain
6:35 PM 71.6 °F - 69.8 °F 94% 29.90 in 7.0 mi NE 3.5 mph - 0.01 in   Scattered Clouds
6:55 PM 71.6 °F - 69.8 °F 94% 29.91 in 7.0 mi Calm Calm - N/A Rain Light Rain
7:15 PM 71.6 °F - 69.8 °F 94% 29.91 in 10.0 mi Calm Calm - N/A Rain Light Rain
7:35 PM 69.8 °F - 69.8 °F 100% 29.92 in 10.0 mi East 3.5 mph - 0.01 in Rain Light Rain
7:55 PM 69.8 °F - 69.8 °F 100% 29.93 in 0.8 mi East 5.8 mph - 0.44 in Rain Heavy Rain
8:15 PM 69.8 °F - 69.8 °F 100% 29.93 in 7.0 mi SSE 4.6 mph - 0.54 in Rain Light Rain
8:35 PM 69.8 °F - 69.8 °F 100% 29.94 in 7.0 mi Calm Calm - 0.61 in Rain , Thunderstorm Light Thunderstorms and Rain
8:55 PM 69.8 °F - 69.8 °F 100% 29.94 in 10.0 mi Calm Calm - 0.01 in Rain Light Rain
9:15 PM 69.8 °F - 69.8 °F 100% 29.95 in 7.0 mi Calm Calm - 0.02 in Rain Light Rain
9:35 PM 69.8 °F - 69.8 °F 100% 29.95 in 10.0 mi Calm Calm - 0.02 in   Overcast
9:55 PM 69.8 °F - 69.8 °F 100% 29.96 in 7.0 mi Calm Calm - N/A   Overcast
10:15 PM 69.8 °F - 69.8 °F 100% 29.97 in 7.0 mi Calm Calm - N/A   Overcast
10:35 PM 69.8 °F - 69.8 °F 100% 29.97 in 10.0 mi Calm Calm - 0.01 in   Overcast
10:55 PM 69.8 °F - 69.8 °F 100% 29.97 in 10.0 mi NNW 6.9 mph - N/A Rain Light Rain
11:15 PM 69.8 °F - 69.8 °F 100% 29.97 in 10.0 mi North 6.9 mph - N/A   Overcast
11:35 PM 66.2 °F - 64.4 °F 94% 29.99 in 7.0 mi North 12.7 mph 24.2 mph N/A Rain Light Rain
11:55 PM 64.4 °F - 64.4 °F 100% 30.01 in 7.0 mi North 8.1 mph - 0.01 in   Overcast